Location: Bergheim
(50.9593°N, 6.6400°E)
Time: 23:25:09
(UTC+01:00)

ISS - Pass Details

Date: 05 October 2020
Orbit: 417 x 420 km, 51.6° (Epoch: 30 October)

Event Time Altitude Azimuth Distance (km) Brightness Sun altitude
Rises 19:30:59 0° 285° (WNW) 2,370 1.9 -5.4°
Reaches altitude 10° 19:33:09 10° 278° (W) 1,504 0.8 -5.8°
Maximum altitude 19:36:21 41° 207° (SSW) 628 -2.6 -6.3°
Drops below altitude 10° 19:39:32 10° 136° (SE) 1,499 -1.4 -6.8°
Enters shadow 19:40:56 - 131° (SE) 2,051 -0.7 -7.0°
